Terminal Aerodrome Forecast
Issued by NWS

Home | Current Version | Previous Version | Text Only | Print | Product List | Glossary On
Versions: 1 2 3 4 5 6 7 8 9 10 11 12 13 14 15 16 17 18 19 20 21
000
FTUS46 KSEW 211100
TAFOLM
TAF
KOLM 211120Z 2112/2212 00000KT P6SM FEW002
      TEMPO 2112/2116 3/4SM BR BKN001
     FM211700 22006KT P6SM SKC=

USA.gov is the U.S. government's official web portal to all federal, state and local government web resources and services.